FW5416 Weather Reports


time (UTC)temp
C
wind
direction
speed
KPH
gust
KPH
rain 1hr
cm
rain 24hr
cm
rain mn
cm
humidity
%
barometer
mb
20260508004528 21 269 16.1 32.2 0.00 0.00 0.00 21 1016.4
20260508003032 22 266 16.1 29.0 0.00 0.00 0.00 21 1016.4
20260508001530 22 275 12.9 24.1 0.00 0.00 0.00 22 1016.3
20260508000035 22 267 14.5 30.6 0.00 0.00 0.00 25 1016.2
20260507234530 21 271 14.5 35.4 0.00 0.00 0.00 26 1016.2
20260507233105 22 271 16.1 30.6 0.00 0.00 0.00 27 1016.2
20260507231607 22 275 12.9 25.7 0.00 0.00 0.00 27 1016.3
20260507230141 22 268 14.5 38.6 0.00 0.00 0.00 27 1016.4
20260507220035 22 287 17.7 41.8 0.00 0.00 0.00 29 1017.0
20260507214531 22 290 19.3 37.0 0.00 0.00 0.00 29 1017.2
20260507213035 22 298 14.5 32.2 0.00 0.00 0.00 31 1017.4
20260507210036 22 300 17.7 33.8 0.00 0.00 0.00 32 1017.6
20260507201532 21 289 12.9 29.0 0.00 0.00 0.00 32 1018.1
20260507200150 21 315 12.9 33.8 0.00 0.00 0.00 31 1018.2
20260507194531 21 325 11.3 24.1 0.00 0.00 0.00 33 1018.4
20260507193031 21 348 11.3 25.7 0.00 0.00 0.00 34 1018.6
20260507190035 21 341 8.0 19.3 0.00 0.00 0.00 37 1018.9
20260507184657 20 318 8.0 24.1 0.00 0.00 0.00 39 1018.9
20260507184648 20 300 9.7 24.1 0.00 0.00 0.00 40 1019.1
20260507181642 19 315 6.4 19.3 0.00 0.00 0.00 44 1019.1
20260507180031 18 306 9.7 19.3 0.00 0.00 0.00 45 1019.3
20260507174536 18 307 9.7 24.1 0.00 0.00 0.00 47 1019.5
20260507173148 17 330 9.7 22.5 0.00 0.00 0.00 49 1019.8
20260507171533 17 345 9.7 19.3 0.00 0.00 0.00 50 1019.9
20260507170034 17 323 8.0 19.3 0.00 0.00 0.00 52 1020.0
20260507164534 16 297 9.7 19.3 0.00 0.00 0.00 53 1020.0
20260507163149 16 280 9.7 19.3 0.00 0.00 0.00 56 1020.1
20260507161643 15 296 6.4 17.7 0.00 0.00 0.00 59 1020.3
20260507160032 15 281 9.7 20.9 0.00 0.00 0.00 61 1020.6
20260507154531 14 292 11.3 24.1 0.00 0.00 0.00 62 1020.9
20260507153031 14 282 11.3 22.5 0.00 0.00 0.00 64 1020.9
20260507150037 12 278 8.0 17.7 0.00 0.00 0.00 70 1021.0
20260507144607 12 291 11.3 19.3 0.00 0.00 0.00 72 1020.9
20260507143036 12 298 9.7 19.3 0.00 0.00 0.00 74 1020.9
20260507140031 11 345 6.4 14.5 0.00 0.00 0.00 78 1020.9
20260507134605 10 25 6.4 11.3 0.00 0.00 0.00 79 1020.9
20260507133029 10 44 8.0 11.3 0.00 0.00 0.00 79 1020.8
20260507131606 10 59 11.3 20.9 0.00 0.00 0.00 79 1020.6
20260507130034 10 54 8.0 14.5 0.00 0.00 0.00 78 1020.5
20260507124535 10 34 4.8 12.9 0.00 0.00 0.00 77 1020.5
20260507121532 11 337 4.8 11.3 0.00 0.00 0.00 76 1020.5
20260507120147 11 313 4.8 16.1 0.00 0.00 0.00 78 1020.4
20260507114539 11 354 3.2 12.9 0.00 0.00 0.00 77 1020.2
20260507113033 11 15 6.4 14.5 0.00 0.00 0.00 77 1020.1
20260507111531 11 2 6.4 14.5 0.00 0.00 0.00 77 1019.9
20260507110036 11 11 4.8 12.9 0.00 0.00 0.00 76 1019.8
20260507103032 12 3 4.8 11.3 0.00 0.00 0.00 74 1019.7
20260507101537 12 28 4.8 14.5 0.00 0.00 0.00 73 1019.6
20260507100044 12 198 3.2 11.3 0.00 0.00 0.00 72 1019.6
20260507094531 13 221 3.2 11.3 0.00 0.00 0.00 71 1019.6
20260507093031 13 298 6.4 25.7 0.00 0.00 0.00 70 1019.5
20260507091535 13 301 4.8 14.5 0.00 0.00 0.00 70 1019.6
20260507090036 14 271 9.7 22.5 0.00 0.00 0.00 69 1019.5
20260507084530 14 263 14.5 25.7 0.00 0.00 0.00 68 1019.4
20260507083034 15 261 11.3 24.1 0.00 0.00 0.00 67 1019.4
20260507081607 15 265 11.3 27.4 0.00 0.00 0.00 67 1019.4
20260507074536 15 266 14.5 32.2 0.00 0.00 0.00 68 1019.2
20260507073031 15 271 14.5 30.6 0.00 0.00 0.00 69 1019.1
20260507070029 15 281 16.1 33.8 0.00 0.00 0.00 69 1019.2
20260507063033 15 278 12.9 25.7 0.00 0.00 0.00 68 1019.4
20260507061535 16 269 14.5 29.0 0.00 0.00 0.00 68 1019.5
20260507060031 16 271 14.5 37.0 0.00 0.00 0.00 67 1019.7
20260507054534 16 275 12.9 27.4 0.00 0.00 0.00 66 1019.8
20260507051535 16 285 9.7 22.5 0.00 0.00 0.00 61 1019.9
20260507044530 17 286 9.7 22.5 0.00 0.00 0.00 54 1019.9
20260507043035 17 297 11.3 27.4 0.00 0.00 0.00 52 1019.8
20260507040044 18 266 11.3 25.7 0.00 0.00 0.00 50 1019.4
20260507033029 18 261 17.7 38.6 0.00 0.00 0.00 49 1018.9
20260507031535 19 257 16.1 35.4 0.00 0.00 0.00 48 1018.7
20260507030037 20 255 14.5 27.4 0.00 0.00 0.00 47 1018.8
20260507024531 20 265 14.5 27.4 0.00 0.00 0.00 47 1018.7
20260507023036 20 265 16.1 30.6 0.00 0.00 0.00 47 1018.7
20260507021648 20 265 17.7 30.6 0.00 0.00 0.00 47 1018.7
20260507014528 20 268 24.1 41.8 0.00 0.00 0.00 46 1018.4
20260507013031 20 266 24.1 40.2 0.00 0.00 0.00 45 1018.3
20260507011533 20 261 20.9 38.6 0.00 0.00 0.00 44 1018.3
20260507010030 21 263 20.9 38.6 0.00 0.00 0.00 44 1018.3